Laramie, WY

8:01 AM MDT on June 23, 2017 (GMT -0600)
Laramie Regional

Weather History for KLAR - October, 2014

Change the Weather History Date:

Friday, October 3, 2014

  Actual Average Record
Temperature  
Mean Temperature 41 °F 46 °F  
Max Temperature 56 °F 61 °F 76 °F (1963)
Min Temperature 25 °F 32 °F 17 °F (1978)
Degree Days  
Heating Degree Days 24 19  
Month to date heating degree days 75 55  
Since 1 July heating degree days 526 580  
Cooling Degree Days 0 0  
Month to date cooling degree days 0 0  
Year to date cooling degree days 67 67  
Moisture  
Dew Point 22 °F    
Average Humidity 54    
Maximum Humidity 92    
Minimum Humidity 16    
Precipitation  
Precipitation T in 0.03 in 0.44 in (1986)
Month to date precipitation 0.06 0.10  
Year to date precipitation 12.92 9.36  
Sea Level Pressure  
Sea Level Pressure 30.27 in    
Wind  
Wind Speed 14 mph (NW)    
Max Wind Speed 28 mph    
Max Gust Speed 34 mph    
Visibility 9 miles    
Events Snow    
T = Trace of Precipitation, MM = Missing Value Source: NWS Daily Summary

Daily Weather History Graph

Daily Weather History Graph

Search for Another Location

Airport or City:

Trip Planner

Search our weather history database for the weather conditions in past years. The results will help you decide how hot, cold, wet, or windy it might be!

Date:

Astronomy

Oct. 03, 2014 Rise Set
Actual Time 7:01 AM MDT 6:41 PM MDT
Civil Twilight 6:33 AM MDT 7:08 PM MDT
Nautical Twilight 6:01 AM MDT 7:40 PM MDT
Astronomical Twilight 5:29 AM MDT 8:12 PM MDT
Moon 3:39 PM MDT (10/3) 1:22 AM MDT (10/3)
Length of Visible Light 12h 34m
Length of Day
11h 39m
Waxing Gibbous, 71% of the Moon is Illuminated
Oct 3
Waxing Gibbous
Oct 8
Full
Oct 15
Last Quarter
Oct 23
New
Oct 30
First Quarter

Hourly Weather History & Observations

Time (MDT) Temp. Windchill Dew Point Humidity Pressure Visibility Wind Dir Wind Speed Gust Speed Precip Events Conditions
12:08 AM 30.0 °F 21.7 °F 25.0 °F 82% 30.29 in 7.0 mi NNE 9.2 mph - 0.00 in Snow Light Snow
12:53 AM 30.0 °F 23.2 °F 25.0 °F 82% 30.25 in 10.0 mi NNE 6.9 mph - 0.00 in   Overcast
1:53 AM 28.0 °F 17.5 °F 25.0 °F 88% 30.26 in 5.0 mi North 12.7 mph - N/A   Overcast
2:09 AM 28.0 °F 19.3 °F 26.1 °F 92% 30.34 in 2.5 mi North 9.2 mph - 0.00 in Snow Light Snow
2:18 AM 28.0 °F 18.6 °F 25.0 °F 88% 30.34 in 3.0 mi North 10.4 mph - 0.00 in Snow Light Snow
2:42 AM 28.0 °F 18.1 °F 24.1 °F 85% 30.36 in 10.0 mi North 11.5 mph - 0.00 in   Overcast
2:53 AM 28.0 °F 19.3 °F 24.1 °F 85% 30.27 in 10.0 mi North 9.2 mph - 0.00 in   Overcast
3:28 AM 27.0 °F 20.5 °F 24.1 °F 89% 30.36 in 10.0 mi NE 5.8 mph - N/A   Overcast
3:35 AM 27.0 °F 19.5 °F 24.1 °F 89% 30.36 in 10.0 mi North 6.9 mph - N/A   Overcast
3:53 AM 27.0 °F 18.7 °F 23.0 °F 85% 30.27 in 10.0 mi North 8.1 mph - N/A   Overcast
4:28 AM 27.0 °F 18.0 °F 23.0 °F 85% 30.37 in 10.0 mi North 9.2 mph - N/A   Overcast
4:53 AM 27.0 °F 21.6 °F 24.1 °F 89% 30.30 in 10.0 mi NW 4.6 mph - N/A   Overcast
5:15 AM 28.0 °F 20.8 °F 24.1 °F 85% 30.36 in 10.0 mi NW 6.9 mph - N/A   Overcast
5:40 AM 28.0 °F 21.7 °F 24.1 °F 85% 30.37 in 10.0 mi NW 5.8 mph - N/A   Overcast
5:53 AM 28.0 °F 20.0 °F 24.1 °F 85% 30.29 in 10.0 mi WNW 8.1 mph - N/A   Overcast
6:53 AM 25.0 °F 17.1 °F 23.0 °F 92% 30.32 in 10.0 mi West 6.9 mph - N/A   Clear
7:53 AM 27.0 °F 18.7 °F 24.1 °F 89% 30.33 in 10.0 mi WNW 8.1 mph - N/A   Partly Cloudy
8:53 AM 35.1 °F 24.5 °F 21.0 °F 57% 30.28 in 10.0 mi NNW 18.4 mph 28.8 mph N/A   Clear
9:53 AM 39.0 °F 30.3 °F 23.0 °F 53% 30.26 in 10.0 mi NW 16.1 mph - N/A   Clear
10:53 AM 42.1 °F 34.5 °F 26.1 °F 53% 30.27 in 10.0 mi NNW 15.0 mph 23.0 mph N/A   Clear
11:53 AM 48.9 °F - 27.0 °F 43% 30.26 in 10.0 mi NNW 24.2 mph 29.9 mph N/A   Clear
12:53 PM 53.1 °F - 21.9 °F 30% 30.22 in 10.0 mi WNW 16.1 mph 29.9 mph N/A   Clear
1:53 PM 55.0 °F - 14.0 °F 20% 30.19 in 10.0 mi NW 20.7 mph 31.1 mph N/A   Clear
2:53 PM 55.9 °F - 10.9 °F 17% 30.19 in 10.0 mi NW 24.2 mph 32.2 mph N/A   Clear
3:53 PM 55.9 °F - 10.0 °F 16% 30.18 in 10.0 mi NW 20.7 mph 28.8 mph N/A   Clear
4:53 PM 55.0 °F - 16.0 °F 22% 30.20 in 10.0 mi NW 23.0 mph 29.9 mph N/A   Clear
5:53 PM 53.1 °F - 15.1 °F 22% 30.21 in 10.0 mi NW 20.7 mph 26.5 mph N/A   Clear
6:53 PM 46.0 °F 40.2 °F 19.9 °F 35% 30.27 in 10.0 mi WNW 12.7 mph - N/A   Clear
7:53 PM 42.1 °F 36.1 °F 21.9 °F 45% 30.30 in 10.0 mi West 10.4 mph - N/A   Clear
8:53 PM 37.9 °F 31.5 °F 21.9 °F 53% 30.26 in 10.0 mi WSW 9.2 mph - N/A   Clear
9:53 PM 43.0 °F 37.2 °F 21.0 °F 42% 30.20 in 10.0 mi West 10.4 mph - N/A   Clear
10:53 PM 44.1 °F 37.1 °F 21.0 °F 40% 30.17 in 10.0 mi West 15.0 mph - N/A   Clear
11:53 PM 39.9 °F 34.5 °F 21.0 °F 47% 30.14 in 10.0 mi West 8.1 mph - N/A   Clear